Time,TemperatureF,DewpointF,PressureIn,WindDirection,WindDirectionDegrees,WindSpeedMPH,WindSpeedGustMPH,Humidity,HourlyPrecipIn,Conditions,Clouds,dailyrainin,SoftwareType,DateUTC
2013-02-27 00:00:00,56.1,0.0,30.23,NW,323,2.0,10.0,0,0.00,,,0.00,Weather View 32 v70,2013-02-27 08:00:00,
2013-02-27 00:10:00,53.6,0.0,30.24,ENE,59,0.0,10.0,0,0.00,,,0.00,Weather View 32 v70,2013-02-27 08:10:00,
2013-02-27 00:20:00,51.0,0.0,30.25,East,82,0.0,10.0,0,0.00,,,0.00,Weather View 32 v70,2013-02-27 08:20:00,
2013-02-27 00:27:00,51.0,0.0,30.25,East,82,0.0,10.0,0,0.00,,,0.00,Weather View 32 v70,2013-02-27 08:27:00,
2013-02-27 00:40:00,48.9,0.0,30.25,NE,55,0.0,10.0,0,0.00,,,0.00,Weather View 32 v70,2013-02-27 08:40:00,
2013-02-27 00:50:00,49.2,0.0,30.25,NE,55,0.0,10.0,0,0.00,,,0.00,Weather View 32 v70,2013-02-27 08:50:00,
2013-02-27 01:00:00,48.5,0.0,30.25,NE,55,0.0,5.0,0,0.00,,,0.00,Weather View 32 v70,2013-02-27 09:00:00,
2013-02-27 01:10:00,47.4,0.0,30.25,NE,55,0.0,3.0,0,0.00,,,0.00,Weather View 32 v70,2013-02-27 09:10:00,
2013-02-27 01:20:00,46.7,0.0,30.26,NE,55,0.0,3.0,0,0.00,,,0.00,Weather View 32 v70,2013-02-27 09:20:00,
2013-02-27 01:28:00,46.7,0.0,30.26,NE,55,0.0,3.0,0,0.00,,,0.00,Weather View 32 v70,2013-02-27 09:28:00,
2013-02-27 01:40:00,46.3,0.0,30.26,North,4,0.0,4.0,0,0.00,,,0.00,Weather View 32 v70,2013-02-27 09:40:00,
2013-02-27 01:50:00,46.0,0.0,30.26,North,4,0.0,4.0,0,0.00,,,0.00,Weather View 32 v70,2013-02-27 09:50:00,
2013-02-27 02:00:00,46.6,0.0,30.26,North,4,0.0,4.0,0,0.00,,,0.00,Weather View 32 v70,2013-02-27 10:00:00,
2013-02-27 02:10:00,45.6,0.0,30.27,North,4,0.0,4.0,0,0.00,,,0.00,Weather View 32 v70,2013-02-27 10:10:00,
2013-02-27 02:20:00,45.5,0.0,30.27,North,4,0.0,4.0,0,0.00,,,0.00,Weather View 32 v70,2013-02-27 10:20:00,
2013-02-27 02:28:00,45.5,0.0,30.27,North,4,0.0,4.0,0,0.00,,,0.00,Weather View 32 v70,2013-02-27 10:28:00,
2013-02-27 02:40:00,43.5,0.0,30.27,North,4,0.0,0.0,0,0.00,,,0.00,Weather View 32 v70,2013-02-27 10:40:00,
2013-02-27 02:50:00,43.8,0.0,30.27,North,4,0.0,0.0,0,0.00,,,0.00,Weather View 32 v70,2013-02-27 10:50:00,
2013-02-27 03:00:00,43.5,0.0,30.28,North,4,0.0,0.0,0,0.00,,,0.00,Weather View 32 v70,2013-02-27 11:00:00,
2013-02-27 03:10:00,43.4,0.0,30.28,North,4,0.0,0.0,0,0.00,,,0.00,Weather View 32 v70,2013-02-27 11:10:00,
2013-02-27 03:20:00,42.7,0.0,30.28,North,4,0.0,0.0,0,0.00,,,0.00,Weather View 32 v70,2013-02-27 11:20:00,
2013-02-27 03:29:00,42.7,0.0,30.28,North,4,0.0,0.0,0,0.00,,,0.00,Weather View 32 v70,2013-02-27 11:29:00,
2013-02-27 03:40:00,42.4,0.0,30.29,North,4,0.0,0.0,0,0.00,,,0.00,Weather View 32 v70,2013-02-27 11:40:00,
2013-02-27 03:50:00,42.1,0.0,30.29,North,4,0.0,0.0,0,0.00,,,0.00,Weather View 32 v70,2013-02-27 11:50:00,
2013-02-27 04:00:00,41.8,0.0,30.29,North,4,0.0,0.0,0,0.00,,,0.00,Weather View 32 v70,2013-02-27 12:00:00,
2013-02-27 04:10:00,41.3,0.0,30.29,North,4,0.0,0.0,0,0.00,,,0.00,Weather View 32 v70,2013-02-27 12:10:00,
2013-02-27 04:20:00,41.2,0.0,30.29,North,4,0.0,0.0,0,0.00,,,0.00,Weather View 32 v70,2013-02-27 12:20:00,
2013-02-27 04:30:00,41.7,0.0,30.29,North,4,0.0,0.0,0,0.00,,,0.00,Weather View 32 v70,2013-02-27 12:30:00,
2013-02-27 04:40:00,40.8,0.0,30.30,North,4,0.0,0.0,0,0.00,,,0.00,Weather View 32 v70,2013-02-27 12:40:00,
2013-02-27 04:50:00,40.9,0.0,30.30,North,4,0.0,0.0,0,0.00,,,0.00,Weather View 32 v70,2013-02-27 12:50:00,
2013-02-27 05:00:00,40.6,0.0,30.30,North,4,0.0,0.0,0,0.00,,,0.00,Weather View 32 v70,2013-02-27 13:00:00,
2013-02-27 05:10:00,40.5,0.0,30.30,North,4,0.0,0.0,0,0.00,,,0.00,Weather View 32 v70,2013-02-27 13:10:00,
2013-02-27 05:20:00,40.4,0.0,30.30,North,4,0.0,0.0,0,0.00,,,0.00,Weather View 32 v70,2013-02-27 13:20:00,
2013-02-27 05:30:00,39.9,0.0,30.30,North,4,0.0,0.0,0,0.00,,,0.00,Weather View 32 v70,2013-02-27 13:30:00,
2013-02-27 05:40:00,39.7,0.0,30.29,North,4,0.0,0.0,0,0.00,,,0.00,Weather View 32 v70,2013-02-27 13:40:00,
2013-02-27 05:50:00,40.2,0.0,30.29,North,4,0.0,0.0,0,0.00,,,0.00,Weather View 32 v70,2013-02-27 13:50:00,
2013-02-27 06:00:00,39.1,0.0,30.29,North,4,0.0,0.0,0,0.00,,,0.00,Weather View 32 v70,2013-02-27 14:00:00,
2013-02-27 06:10:00,39.2,0.0,30.29,North,4,0.0,0.0,0,0.00,,,0.00,Weather View 32 v70,2013-02-27 14:10:00,
2013-02-27 06:20:00,39.2,0.0,30.30,North,4,0.0,0.0,0,0.00,,,0.00,Weather View 32 v70,2013-02-27 14:20:00,
2013-02-27 06:30:00,39.1,0.0,30.30,North,4,0.0,0.0,0,0.00,,,0.00,Weather View 32 v70,2013-02-27 14:30:00,
2013-02-27 06:40:00,38.9,0.0,30.31,North,4,0.0,0.0,0,0.00,,,0.00,Weather View 32 v70,2013-02-27 14:40:00,
2013-02-27 06:50:00,39.5,0.0,30.31,North,4,0.0,0.0,0,0.00,,,0.00,Weather View 32 v70,2013-02-27 14:50:00,
2013-02-27 07:00:00,39.6,0.0,30.32,North,4,0.0,0.0,0,0.00,,,0.00,Weather View 32 v70,2013-02-27 15:00:00,
2013-02-27 07:10:00,41.2,0.0,30.32,North,4,0.0,0.0,0,0.00,,,0.00,Weather View 32 v70,2013-02-27 15:10:00,
2013-02-27 07:20:00,41.9,0.0,30.33,North,4,0.0,0.0,0,0.00,,,0.00,Weather View 32 v70,2013-02-27 15:20:00,
2013-02-27 07:30:00,43.0,0.0,30.33,North,4,0.0,0.0,0,0.00,,,0.00,Weather View 32 v70,2013-02-27 15:30:00,
2013-02-27 07:40:00,43.4,0.0,30.34,North,4,0.0,0.0,0,0.00,,,0.00,Weather View 32 v70,2013-02-27 15:40:00,
2013-02-27 07:50:00,44.1,0.0,30.35,North,4,0.0,0.0,0,0.00,,,0.00,Weather View 32 v70,2013-02-27 15:50:00,
2013-02-27 08:00:00,45.2,0.0,30.36,North,4,0.0,0.0,0,0.00,,,0.00,Weather View 32 v70,2013-02-27 16:00:00,
2013-02-27 08:10:00,45.6,0.0,30.36,East,97,3.0,4.0,0,0.00,,,0.00,Weather View 32 v70,2013-02-27 16:10:00,
2013-02-27 08:20:00,46.2,0.0,30.36,ESE,103,2.0,4.0,0,0.00,,,0.00,Weather View 32 v70,2013-02-27 16:20:00,
2013-02-27 08:30:00,46.3,0.0,30.36,ENE,66,0.0,4.0,0,0.00,,,0.00,Weather View 32 v70,2013-02-27 16:30:00,
2013-02-27 08:40:00,47.9,0.0,30.36,ENE,66,0.0,4.0,0,0.00,,,0.00,Weather View 32 v70,2013-02-27 16:40:00,
2013-02-27 08:50:00,49.4,0.0,30.36,East,91,0.0,4.0,0,0.00,,,0.00,Weather View 32 v70,2013-02-27 16:50:00,
2013-02-27 09:00:00,50.3,0.0,30.37,East,91,0.0,4.0,0,0.00,,,0.00,Weather View 32 v70,2013-02-27 17:00:00,
2013-02-27 09:10:00,51.2,0.0,30.38,SSE,167,0.0,4.0,0,0.00,,,0.00,Weather View 32 v70,2013-02-27 17:10:00,
2013-02-27 09:20:00,51.9,0.0,30.38,ESE,117,1.0,3.0,0,0.00,,,0.00,Weather View 32 v70,2013-02-27 17:20:00,
2013-02-27 09:30:00,51.7,0.0,30.38,East,98,0.0,3.0,0,0.00,,,0.00,Weather View 32 v70,2013-02-27 17:30:00,
2013-02-27 09:40:00,53.0,0.0,30.38,East,93,2.0,4.0,0,0.00,,,0.00,Weather View 32 v70,2013-02-27 17:40:00,
2013-02-27 09:50:00,54.5,0.0,30.38,SE,135,1.0,4.0,0,0.00,,,0.00,Weather View 32 v70,2013-02-27 17:50:00,
2013-02-27 10:00:00,56.0,0.0,30.38,ENE,77,2.0,4.0,0,0.00,,,0.00,Weather View 32 v70,2013-02-27 18:00:00,
2013-02-27 10:10:00,57.4,0.0,30.37,SE,134,0.0,5.0,0,0.00,,,0.00,Weather View 32 v70,2013-02-27 18:10:00,
2013-02-27 10:20:00,58.3,0.0,30.37,ENE,76,0.0,5.0,0,0.00,,,0.00,Weather View 32 v70,2013-02-27 18:20:00,
2013-02-27 10:30:00,59.5,0.0,30.37,ENE,63,1.0,6.0,0,0.00,,,0.00,Weather View 32 v70,2013-02-27 18:30:00,
2013-02-27 10:40:00,59.4,0.0,30.37,NNE,32,0.0,6.0,0,0.00,,,0.00,Weather View 32 v70,2013-02-27 18:40:00,
2013-02-27 10:50:00,59.0,0.0,30.37,SE,132,3.0,6.0,0,0.00,,,0.00,Weather View 32 v70,2013-02-27 18:50:00,
2013-02-27 11:00:00,60.5,0.0,30.37,SE,134,0.0,6.0,0,0.00,,,0.00,Weather View 32 v70,2013-02-27 19:00:00,
2013-02-27 11:10:00,62.3,0.0,30.37,East,83,0.0,6.0,0,0.00,,,0.00,Weather View 32 v70,2013-02-27 19:10:00,
2013-02-27 11:20:00,62.7,0.0,30.37,East,96,6.0,7.0,0,0.00,,,0.00,Weather View 32 v70,2013-02-27 19:20:00,
2013-02-27 11:30:00,64.1,0.0,30.37,SE,134,4.0,7.0,0,0.00,,,0.00,Weather View 32 v70,2013-02-27 19:30:00,
2013-02-27 11:40:00,64.9,0.0,30.36,ESE,105,3.0,7.0,0,0.00,,,0.00,Weather View 32 v70,2013-02-27 19:40:00,
2013-02-27 11:50:00,64.2,0.0,30.36,SE,138,3.0,7.0,0,0.00,,,0.00,Weather View 32 v70,2013-02-27 19:50:00,
2013-02-27 12:00:00,65.5,0.0,30.36,SE,128,2.0,7.0,0,0.00,,,0.00,Weather View 32 v70,2013-02-27 20:00:00,
2013-02-27 12:10:00,66.1,0.0,30.36,ESE,103,4.0,7.0,0,0.00,,,0.00,Weather View 32 v70,2013-02-27 20:10:00,
2013-02-27 12:20:00,68.1,0.0,30.35,East,86,0.0,7.0,0,0.00,,,0.00,Weather View 32 v70,2013-02-27 20:20:00,
2013-02-27 12:30:00,67.6,0.0,30.35,East,100,0.0,7.0,0,0.00,,,0.00,Weather View 32 v70,2013-02-27 20:30:00,
2013-02-27 12:40:00,69.0,0.0,30.35,North,1,2.0,7.0,0,0.00,,,0.00,Weather View 32 v70,2013-02-27 20:40:00,
2013-02-27 12:50:00,69.5,0.0,30.35,East,91,4.0,7.0,0,0.00,,,0.00,Weather View 32 v70,2013-02-27 20:50:00,
2013-02-27 13:00:00,69.1,0.0,30.34,ESE,103,3.0,8.0,0,0.00,,,0.00,Weather View 32 v70,2013-02-27 21:00:00,
2013-02-27 13:10:00,69.4,0.0,30.33,SE,145,3.0,8.0,0,0.00,,,0.00,Weather View 32 v70,2013-02-27 21:10:00,
2013-02-27 13:20:00,70.3,0.0,30.33,SE,129,3.0,8.0,0,0.00,,,0.00,Weather View 32 v70,2013-02-27 21:20:00,
2013-02-27 13:30:00,70.8,0.0,30.33,East,84,3.0,8.0,0,0.00,,,0.00,Weather View 32 v70,2013-02-27 21:30:00,
2013-02-27 13:35:00,70.8,0.0,30.33,East,84,3.0,8.0,0,0.00,,,0.00,Weather View 32 v70,2013-02-27 21:35:00,
2013-02-27 13:50:00,70.9,0.0,30.32,South,176,4.0,9.0,0,0.00,,,0.00,Weather View 32 v70,2013-02-27 21:50:00,
2013-02-27 14:00:00,71.0,0.0,30.32,ESE,104,4.0,9.0,0,0.00,,,0.00,Weather View 32 v70,2013-02-27 22:00:00,
2013-02-27 14:10:00,70.4,0.0,30.32,South,183,0.0,9.0,0,0.00,,,0.00,Weather View 32 v70,2013-02-27 22:10:00,
2013-02-27 14:20:00,71.1,0.0,30.32,SSE,148,4.0,9.0,0,0.00,,,0.00,Weather View 32 v70,2013-02-27 22:20:00,
2013-02-27 14:30:00,71.5,0.0,30.32,SSE,152,0.0,9.0,0,0.00,,,0.00,Weather View 32 v70,2013-02-27 22:30:00,
2013-02-27 14:35:00,71.5,0.0,30.32,SSE,152,0.0,9.0,0,0.00,,,0.00,Weather View 32 v70,2013-02-27 22:35:00,
2013-02-27 14:50:00,71.4,0.0,30.32,SSW,212,2.0,9.0,0,0.00,,,0.00,Weather View 32 v70,2013-02-27 22:50:00,
2013-02-27 15:00:00,70.9,0.0,30.32,East,97,1.0,9.0,0,0.00,,,0.00,Weather View 32 v70,2013-02-27 23:00:00,
2013-02-27 15:10:00,71.3,0.0,30.31,SSW,205,3.0,9.0,0,0.00,,,0.00,Weather View 32 v70,2013-02-27 23:10:00,
2013-02-27 15:20:00,71.2,0.0,30.31,ENE,68,3.0,9.0,0,0.00,,,0.00,Weather View 32 v70,2013-02-27 23:20:00,
2013-02-27 15:30:00,71.3,0.0,30.30,SSE,166,3.0,8.0,0,0.00,,,0.00,Weather View 32 v70,2013-02-27 23:30:00,
2013-02-27 15:36:00,71.3,0.0,30.30,SSE,166,3.0,8.0,0,0.00,,,0.00,Weather View 32 v70,2013-02-27 23:36:00,
2013-02-27 15:50:00,70.0,0.0,30.30,South,183,4.0,8.0,0,0.00,,,0.00,Weather View 32 v70,2013-02-27 23:50:00,
2013-02-27 16:00:00,69.4,0.0,30.30,SW,222,3.0,8.0,0,0.00,,,0.00,Weather View 32 v70,2013-02-28 00:00:00,
2013-02-27 16:10:00,69.3,0.0,30.30,SSW,205,5.0,8.0,0,0.00,,,0.00,Weather View 32 v70,2013-02-28 00:10:00,
2013-02-27 16:20:00,69.2,0.0,30.30,SW,229,4.0,8.0,0,0.00,,,0.00,Weather View 32 v70,2013-02-28 00:20:00,
2013-02-27 16:30:00,68.7,0.0,30.30,SSE,148,1.0,8.0,0,0.00,,,0.00,Weather View 32 v70,2013-02-28 00:30:00,
2013-02-27 16:37:00,68.7,0.0,30.30,SSE,148,1.0,8.0,0,0.00,,,0.00,Weather View 32 v70,2013-02-28 00:37:00,
2013-02-27 16:50:00,67.8,0.0,30.30,South,188,4.0,7.0,0,0.00,,,0.00,Weather View 32 v70,2013-02-28 00:50:00,
2013-02-27 17:00:00,67.8,0.0,30.29,WSW,252,4.0,7.0,0,0.00,,,0.00,Weather View 32 v70,2013-02-28 01:00:00,
2013-02-27 17:10:00,67.3,0.0,30.30,SSW,208,3.0,7.0,0,0.00,,,0.00,Weather View 32 v70,2013-02-28 01:10:00,
2013-02-27 17:20:00,66.8,0.0,30.30,South,187,3.0,7.0,0,0.00,,,0.00,Weather View 32 v70,2013-02-28 01:20:00,
2013-02-27 17:30:00,66.1,0.0,30.30,SSW,197,1.0,7.0,0,0.00,,,0.00,Weather View 32 v70,2013-02-28 01:30:00,
2013-02-27 17:40:00,65.3,0.0,30.30,SSW,210,2.0,7.0,0,0.00,,,0.00,Weather View 32 v70,2013-02-28 01:40:00,
2013-02-27 17:50:00,64.3,0.0,30.30,SW,217,5.0,9.0,0,0.00,,,0.00,Weather View 32 v70,2013-02-28 01:50:00,
2013-02-27 18:00:00,63.9,0.0,30.30,WSW,238,4.0,9.0,0,0.00,,,0.00,Weather View 32 v70,2013-02-28 02:00:00,
2013-02-27 18:10:00,63.0,0.0,30.30,SW,232,2.0,10.0,0,0.00,,,0.00,Weather View 32 v70,2013-02-28 02:10:00,
2013-02-27 18:20:00,62.2,0.0,30.31,WSW,253,4.0,10.0,0,0.00,,,0.00,Weather View 32 v70,2013-02-28 02:20:00,
2013-02-27 18:30:00,61.8,0.0,30.30,SW,231,3.0,10.0,0,0.00,,,0.00,Weather View 32 v70,2013-02-28 02:30:00,
2013-02-27 18:40:00,60.9,0.0,30.31,SW,232,4.0,10.0,0,0.00,,,0.00,Weather View 32 v70,2013-02-28 02:40:00,
2013-02-27 18:50:00,60.4,0.0,30.32,West,271,2.0,10.0,0,0.00,,,0.00,Weather View 32 v70,2013-02-28 02:50:00,
2013-02-27 19:00:00,58.8,0.0,30.32,West,262,0.0,10.0,0,0.00,,,0.00,Weather View 32 v70,2013-02-28 03:00:00,
2013-02-27 19:10:00,58.1,0.0,30.32,West,270,2.0,10.0,0,0.00,,,0.00,Weather View 32 v70,2013-02-28 03:10:00,
2013-02-27 19:20:00,58.2,0.0,30.32,WSW,246,0.0,10.0,0,0.00,,,0.00,Weather View 32 v70,2013-02-28 03:20:00,
2013-02-27 19:30:00,58.0,0.0,30.32,SW,226,0.0,7.0,0,0.00,,,0.00,Weather View 32 v70,2013-02-28 03:30:00,
2013-02-27 19:40:00,57.2,0.0,30.33,SW,226,0.0,7.0,0,0.00,,,0.00,Weather View 32 v70,2013-02-28 03:40:00,
2013-02-27 19:50:00,57.3,0.0,30.33,SW,229,1.0,3.0,0,0.00,,,0.00,Weather View 32 v70,2013-02-28 03:50:00,
2013-02-27 20:00:00,56.8,0.0,30.33,SW,229,0.0,3.0,0,0.00,,,0.00,Weather View 32 v70,2013-02-28 04:00:00,
2013-02-27 20:10:00,55.4,0.0,30.33,SW,229,0.0,3.0,0,0.00,,,0.00,Weather View 32 v70,2013-02-28 04:10:00,
2013-02-27 20:20:00,55.6,0.0,30.33,WSW,249,1.0,4.0,0,0.00,,,0.00,Weather View 32 v70,2013-02-28 04:20:00,
2013-02-27 20:30:00,56.0,0.0,30.33,WSW,256,0.0,4.0,0,0.00,,,0.00,Weather View 32 v70,2013-02-28 04:30:00,
2013-02-27 20:40:00,55.9,0.0,30.33,WSW,256,0.0,4.0,0,0.00,,,0.00,Weather View 32 v70,2013-02-28 04:40:00,
2013-02-27 20:50:00,55.6,0.0,30.34,WSW,248,0.0,4.0,0,0.00,,,0.00,Weather View 32 v70,2013-02-28 04:50:00,
2013-02-27 21:00:00,55.9,0.0,30.34,West,264,0.0,4.0,0,0.00,,,0.00,Weather View 32 v70,2013-02-28 05:00:00,
2013-02-27 21:10:00,55.1,0.0,30.34,WSW,250,0.0,4.0,0,0.00,,,0.00,Weather View 32 v70,2013-02-28 05:10:00,
2013-02-27 21:20:00,55.2,0.0,30.35,SW,231,0.0,3.0,0,0.00,,,0.00,Weather View 32 v70,2013-02-28 05:20:00,
2013-02-27 21:30:00,54.5,0.0,30.35,SW,231,0.0,3.0,0,0.00,,,0.00,Weather View 32 v70,2013-02-28 05:30:00,
2013-02-27 21:40:00,53.8,0.0,30.35,SW,231,0.0,3.0,0,0.00,,,0.00,Weather View 32 v70,2013-02-28 05:40:00,
2013-02-27 21:50:00,53.5,0.0,30.35,SW,231,0.0,3.0,0,0.00,,,0.00,Weather View 32 v70,2013-02-28 05:50:00,
2013-02-27 22:00:00,53.5,0.0,30.35,SW,231,0.0,3.0,0,0.00,,,0.00,Weather View 32 v70,2013-02-28 06:00:00,
2013-02-27 22:10:00,53.0,0.0,30.36,SW,231,0.0,3.0,0,0.00,,,0.00,Weather View 32 v70,2013-02-28 06:10:00,
2013-02-27 22:20:00,52.8,0.0,30.36,SW,231,0.0,0.0,0,0.00,,,0.00,Weather View 32 v70,2013-02-28 06:20:00,
2013-02-27 22:30:00,52.9,0.0,30.37,WSW,243,0.0,3.0,0,0.00,,,0.00,Weather View 32 v70,2013-02-28 06:30:00,
2013-02-27 22:40:00,53.1,0.0,30.37,WNW,293,1.0,3.0,0,0.00,,,0.00,Weather View 32 v70,2013-02-28 06:40:00,
2013-02-27 22:50:00,53.0,0.0,30.37,WSW,253,0.0,3.0,0,0.00,,,0.00,Weather View 32 v70,2013-02-28 06:50:00,
2013-02-27 23:00:00,52.2,0.0,30.37,WNW,302,2.0,3.0,0,0.00,,,0.00,Weather View 32 v70,2013-02-28 07:00:00,
2013-02-27 23:10:00,53.2,0.0,30.37,WNW,283,0.0,5.0,0,0.00,,,0.00,Weather View 32 v70,2013-02-28 07:10:00,
2013-02-27 23:20:00,53.0,0.0,30.37,WNW,283,0.0,5.0,0,0.00,,,0.00,Weather View 32 v70,2013-02-28 07:20:00,
2013-02-27 23:30:00,52.2,0.0,30.37,WNW,302,2.0,5.0,0,0.00,,,0.00,Weather View 32 v70,2013-02-28 07:30:00,
2013-02-27 23:35:00,52.2,0.0,30.37,WNW,302,2.0,5.0,0,0.00,,,0.00,Weather View 32 v70,2013-02-28 07:35:00,
2013-02-27 23:50:00,52.0,0.0,30.38,SW,232,0.0,5.0,0,0.00,,,0.00,Weather View 32 v70,2013-02-28 07:50:00,